AirNav   Pilot Hours Calculator
 
 435 users online  

T92 Mason County Airport
Mason, Texas, USA

GOING TO MASON?


FAA INFORMATION EFFECTIVE 31 DECEMBER 2020

Location

FAA Identifier: T92
Lat/Long: 30-43-55.8949N 099-11-02.4215W
30-43.931582N 099-11.040358W
30.7321930,-99.1840060
(estimated)
Elevation: 1514 ft. / 461.5 m (surveyed)
Variation: 05E (2015)
From city: 3 miles SE of MASON, TX
Time zone: UTC -6 (UTC -5 during Daylight Saving Time)
Zip code: 76856

Airport Operations

Airport use: Open to the public
Activation date: 02/1945
Control tower: no
ARTCC: HOUSTON CENTER
FSS: SAN ANGELO FLIGHT SERVICE STATION
NOTAMs facility: SJT (NOTAM-D service available)
Attendance: UNATNDD
Wind indicator: lighted
Segmented circle: yes
Lights: SS-SR
Beacon: white-green (lighted land airport)
Operates sunset to sunrise.

Airport Communications

CTAF: 122.9
  • APCH/DEP SVC PRVDD BY HOUSTON ARTCC ON FREQS 132.35/317.5 (LOMETA RCAG).

Nearby radio navigation aids

VOR radial/distance  VOR name  Freq  Var
LLOr251/20.8LLANO VORTAC108.2008E
JCTr068/33.7JUNCTION VORTAC116.0008E

Airport Services

Fuel available: 100LL
FUEL AVBL 24 HRS WITH CREDIT CARD. FOR ASSITANCE CALL 325-347-5252.
Parking: tiedowns
Bottled oxygen: NONE
Bulk oxygen: NONE

Runway Information

Runway 18/36

Dimensions: 3716 x 50 ft. / 1133 x 15 m
Surface: asphalt, in poor condition
PAVEMENT CRACKING, VEGETATION GROWING THROUGH.
Runway edge lights: low intensity
Runway edge markings: MARKINGS FADED
RUNWAY 18  RUNWAY 36
Latitude: 30-44.238930N30-43.626155N
Longitude: 099-11.051268W099-11.064108W
Elevation: 1501.8 ft.1497.9 ft.
Traffic pattern: leftleft
Runway heading: 176 magnetic, 181 true356 magnetic, 001 true
Markings: nonprecision, in poor conditionnonprecision, in poor condition
Touchdown point: yes, no lightsyes, no lights
Obstructions: 29 ft. trees, 965 ft. from runway, 26:1 slope to clear12 ft. brush, 200 ft. from runway, 162 ft. right of centerline
+14-23 FT TREES 0-200 FT DSTC 240 FT R OF CNTRLN.

Airport Ownership and Management from official FAA records

Ownership: Publicly-owned
Owner: MASON COUNTY
COURTHOUSE
MASON, TX 76856
Phone 325-347-5556
Manager: JERRY BEARDEN
COUNTY COURTHOUSE
MASON, TX 76856
Phone 325-347-5556
COUNTY JUDGE/ARPT MGR.

Airport Operational Statistics

Aircraft based on the field: 5
Single engine airplanes: 5
    
Aircraft operations: avg 38/week *
60% transient general aviation
40% local general aviation
* for 12-month period ending 14 May 2020

Additional Remarks

HEAVY TRANSIENT TFC NOV-JAN.
DEER ON AND IN VICINITY OF RWY.
FOR CD CTC HOUSTON ARTCC AT 281-230-5622.

Instrument Procedures

NOTE: All procedures below are presented as PDF files. If you need a reader for these files, you should download the free Adobe Reader.

NOT FOR NAVIGATION. Please procure official charts for flight.
FAA instrument procedures published for use from 31 December 2020 at 0901Z to 28 January 2021 at 0900Z.

 
IAPs - Instrument Approach Procedures
RNAV (GPS) RWY 18   download (193KB)
RNAV (GPS) RWY 36   download (197KB)
VOR-A   download (167KB)
NOTE: Special Take-Off Minimums/Departure Procedures apply   download (504KB)

Other nearby airports with instrument procedures:

KAQO - Llano Municipal Airport (27 nm E)
KBBD - Curtis Field Airport (28 nm N)
T82 - Gillespie County Airport (33 nm SE)
KJCT - Kimble County Airport (33 nm SW)
KERV - Kerrville Municipal Airport/Louis Schreiner Field (46 nm S)
 
Loc | Ops | Rwys | IFR | FBO | Links
Com | Nav | Svcs | Stats | Notes
Area around T92 (Mason County Airport)
 
Road maps at: MapQuest Bing Google
 
Aerial photo
WARNING: Photo may not be current or correct
Aerial photo of T92 (Mason County Airport)
Do you have a better or more recent aerial photo of Mason County Airport that you would like to share? If so, please send us your photo.

 
Sectional chart

 
Airport distance calculator
Flying to Mason County Airport? Find the distance to fly.

From to T92

Sunrise and sunset
Times for 19-Jan-2021
 Local
(UTC-6)
 Zulu
(UTC)
Morning civil twilight07:0913:09
Sunrise07:3513:35
Sunset18:0000:00
Evening civil twilight18:2600:26

Current date and time
Zulu (UTC)  19-Jan-2021 09:51:57
Local (UTC-6)  19-Jan-2021 03:51:57
 
METAR
KAQO 
27nm E 
190935Z AUTO 36003KT 10SM BKN012 OVC019 15/13 A3003 RMK AO2
KBBD 
28nm N 
190935Z AUTO 35010KT 10SM OVC017 08/01 A3007 RMK AO2
KT82 
32nm SE 
190935Z AUTO 00000KT 4SM RA OVC006 16/16 A3004 RMK AO2 T01560156
KJCT 
33nm SW 
190851Z AUTO 03008KT 8SM OVC011 11/06 A3004 RMK AO2 SLP147 T01110056 53010
KDZB 
44nm E 
190941Z AUTO 16007KT 10SM BKN013 OVC065 18/15 A3003 RMK AO2
KERV 
45nm S 
190935Z AUTO 16004KT 5SM -RA OVC007 16/15 A3002 RMK AO2 T01620150
KBMQ 
49nm E 
190853Z AUTO 15003KT 10SM OVC011 17/16 A3005 RMK AO2 RAE21 SLP166 P0000 60000 T01670156 51013 $
TAF
KBBD 
28nm N 
190520Z 1906/2006 16007KT P6SM SKC FM190700 36008KT P6SM BKN025 FM191200 02007KT P6SM OVC015 FM191800 01010KT 5SM BR OVC008 FM200000 01012KT P6SM VCSH OVC015
KJCT 
33nm SW 
190520Z 1906/2006 03005KT P6SM OVC015 FM191400 04007KT 5SM BR OVC007 FM200000 03013G19KT P6SM VCSH OVC012
NOTAMs
Click for the latest NOTAMs
NOTAMs are issued by the DoD/FAA and will open in a separate window not controlled by AirNav.

 

 
 

FBO, Fuel Providers, and Aircraft Ground Support

  
 Business Name 
 
 Contact 
 
 Services / Description 
 
Fuel Prices
 
Comments
  
Mason County Airport 325-347-8255
no information available

If you are affiliated with Mason County Airport and would like to show here your services, contact info, web link, logo, and more, click here
100LL
SS $3.50 
 Updated 11-Jan-2021
 
   1 read write
SS=Self service
Update Fuel Prices
 

Would you like to see your business listed on this page?

 If your business provides an interesting product or service to pilots, flight crews, aircraft, or users of the Mason County Airport, you should consider listing it here.  To start the listing process, click on the button below
 
Add a business
 

Other Pages about Mason County Airport

Update a link
 
Copyright © AirNav, LLC. All rights reserved. Privacy Policy  Contact